sat.trackr.live / text

‹ back to catalog

STARLINK-5773

NORAD 57074 · 2023-088AC

PAYLOAD ACTIVE UNKNOWN

§ Identity

Operator
Country
US
Launch date
2023-06-22
Launch site
AFWTR
Launch vehicle
Mass (kg)
RCS (m²)

Purposes: comms

External: N2YO · Heavens-Above · Gunter

§ Orbital elements

Epoch: 2026-09-20T21:14:56.933088Z

Period
94.27 min
Inclination
43.0017°
Eccentricity
0.0000985
Mean motion
15.27575563 rev/d
Perigee alt
482.4 km
Apogee alt
483.7 km
Semi-major
6,861.2 km
B*
6.2432e-6
RAAN
91.8232°
Arg perigee
253.8691°
Mean anomaly
106.2052°
Rev number
18,014

§ Raw data

STARLINK-57731 57074U 23088AC  26263.88538117 -.00000090  00000+0  62432-5 0  99952 57074  43.0017  91.8232 0000985 253.8691 106.2052 15.27575563180147

JSON: /api/v1/satellites/57074 · /tle

For live sub-satellite position, see the globe view (requires WebGL).

§ Visibility from observer

Set your observer location to see the next 7 days of passes ≥ 10°. The values pass through the URL so the page stays shareable.

No JS? Fill the form by hand. The geolocation button needs JavaScript.